Simultaneous Nadir Overpasses (SNOs) Predictions

Prediction of SNOs between METOP-A and TERRA Satellite Orbit:

Table of predicted SNOs for the next 14.0 days since TLE Epoch: 1/4/2015
Index Date (METOP-A) Time (METOP-A) Lat,Lon (METOP-A) SZA (METOP-A ) Date (TERRA) Time (TERRA) Lat,Lon (TERRA) SZA (TERRA ) Distance(km) Time Diff (sec)
1 01/04/2015 15:56:18 81.31, -12.05 106.48 01/04/2015 15:57:13 81.30, -12.06 106.50 0.32 55
2 01/04/2015 16:46:57 -81.31, 155.98 73.45 01/04/2015 16:46:39 -81.32, 155.89 73.46 1.59 18
3 01/07/2015 11:30:37 81.31, 54.62 106.15 01/07/2015 11:31:30 81.32, 54.61 106.18 0.80 53
4 01/07/2015 12:21:17 -81.31,-137.74 73.82 01/07/2015 12:20:57 -81.31,-137.80 73.84 0.87 20
5 01/10/2015 07:04:57 81.31, 120.84 105.72 01/10/2015 07:05:47 81.31, 120.94 105.75 1.67 50
6 01/10/2015 07:55:37 -81.31, -71.52 74.26 01/10/2015 07:55:14 -81.31, -71.44 74.26 1.32 23
7 01/13/2015 02:39:16 81.31,-172.59 105.26 01/13/2015 02:40:03 81.31,-172.69 105.27 1.66 47
8 01/13/2015 03:29:56 -81.31, -4.95 74.71 01/13/2015 03:29:30 -81.31, -5.05 74.74 1.63 26
9 01/15/2015 22:13:35 81.30,-106.47 104.71 01/15/2015 22:14:17 81.31,-106.28 104.75 3.27 42




NCC Satellite Simultaneous Nadir Overpasses (SNOs) Prediction Service
